www.pogodaiklimat.ru

Погода и климат >> Архив погоды >> Австралия >> Западная Австралия >> Леонора аэропорт


ПОГОДА в Леонора аэропорту

  • Прогноз погоды в Леонора аэропорту
  • Монитор погоды в Леонора аэропорту

АРХИВ ПОГОДЫ в Леонора аэропорту

Время (UTC), дата Ветер
(напр.,м/с)
 
Видим.   Явления Облачность Т
(С)
Тd
(С)
f
(%)
Тe
(С)
Тes
(С)
Комфортность P
(гПа)
Po
(гПа)
Тmin
(С)
Tmax
(С)
R
(мм)
R24
(мм)
S
(см)
07 17.04 СВ 3 н/о н/о +25.8 +7.4 31 +26 +26 жарко 1017.3 974.9
09 17.04 В 3 н/о н/о +25.6 +6.8 30 +25 +25 комфорт 1017.3 974.9
10 17.04 В 2 н/о н/о +24.1 +7.3 34 +24 +24 комфорт 1017.8 975.3
12 17.04 ЮВ 5 н/о н/о +22.0 +9.2 44 +23 +23 комфорт 1018.5 976.0
13 17.04 ЮВ 4 н/о н/о +21.1 +9.4 47 +22 +22 комфорт 1019.1 976.6 +26.5
15 17.04 В 3 н/о н/о +19.5 +9.4 52 +21 +21 комфорт 1018.5 976.0
16 17.04 В 4 н/о н/о +18.6 +9.7 56 +19 +19 1018.2 975.7
18 17.04 В 3 н/о н/о +16.8 +10.0 64 +17 +17 1017.3 974.9
19 17.04 В 4 н/о н/о +16.1 +9.8 66 +16 +16 1017.0 974.6
21 17.04 В 3 н/о н/о +15.1 +10.1 72 +15 +15 1017.1 974.7
22 17.04 ЮВ 3 н/о н/о +15.0 +10.2 73 +14 +14 1017.2 974.8
00 18.04 В 4 н/о н/о +17.9 +11.0 64 +18 +18 1017.8 975.3
01 18.04 В 5 н/о н/о +20.2 +11.4 57 +22 +22 комфорт 1017.2 974.8 +14.8
03 18.04 СВ 4 н/о н/о +24.4 +11.4 44 +26 +26 жарко 1015.8 973.4
04 18.04 С 4 н/о 1/0
[]
+25.8 +10.8 39 +27 +36 жарко 1014.4 972.1
06 18.04 С 3 н/о н/о +27.7 +10.9 35 +28 +28 жарко 1012.7 970.5
07 18.04 С 4 н/о 10/0
[]
+28.0 +11.1 35 +29 +31 жарко 1012.4 970.2
09 18.04 С 5 н/о н/о +28.1 +11.6 36 +29 +29 жарко 1011.2 969.0
10 18.04 СВ 2 н/о 4/0
[]
+26.9 +12.5 41 +28 +28 жарко 1011.2 969.0
12 18.04 СВ 3 н/о н/о +25.0 +13.2 48 +27 +27 жарко 1011.3 969.1
13 18.04 С 4 н/о 10/0
[]
+24.8 +14.0 51 +27 +27 жарко 1010.9 968.7 +28.7
15 18.04 С 6 н/о н/о +24.4 +13.9 52 +27 +27 жарко 1009.5 967.4
16 18.04 С 7 н/о 10/0
[]
+24.0 +14.1 54 +26 +26 жарко 1008.9 966.8
18 18.04 С 9 н/о н/о +24.0 +14.4 55 +27 +27 жарко 1007.9 965.9
19 18.04 СЗ 6 н/о 1/0
[]
+23.1 +14.4 58 +27 +27 душно 1007.5 965.5
21 18.04 З 7 н/о н/о +20.7 +11.6 56 +22 +22 комфорт 1009.1 967.0
22 18.04 З 6 н/о 1/0
[]
+18.7 +11.3 62 +19 +19 1010.3 968.2
00 19.04 З 9 н/о н/о +18.4 +10.0 58 +18 +18 1012.2 970.0
01 19.04 З 8 н/о 1/0
[]
+20.2 +8.2 46 +21 +22 комфорт 1012.6 970.4 +17.8
03 19.04 З 9 н/о н/о +23.1 +9.1 41 +25 +25 комфорт 1012.3 970.1
04 19.04 З 8 н/о 5/5 1500 м
[]
+23.0 +7.5 37 +24 +25 комфорт 1011.8 969.6
06 19.04 З 9 н/о н/о +21.9 +5.3 34 +22 +22 комфорт 1011.8 969.6
07 19.04 З 7 н/о 8/8 1500 м
[]
+21.9 +4.9 33 +22 +23 комфорт 1012.0 969.8
09 19.04 З 7 н/о н/о +20.2 +2.5 31 +20 +20 1012.7 970.5
10 19.04 З 5 н/о н/о +18.8 +2.2 33 +19 +19 1013.7 971.4
12 19.04 ЮЗ 4 н/о н/о +16.1 +3.5 43 +16 +16 1016.1 973.7
13 19.04 ЮЗ 5 н/о н/о +15.1 +3.0 44 +14 +14 1017.0 974.6 +25.2
15 19.04 ЮЗ 2 н/о н/о +13.2 +3.3 51 +13 +13 1017.6 975.2
16 19.04 ЮЗ 2 н/о 6/6 1500 м
[]
+12.6 +3.8 55 +12 +12 1017.9 975.4
18 19.04 ЮЗ 3 н/о н/о +10.7 +3.0 59 +9 +9 1018.6 976.1
19 19.04 ЮЗ 3 н/о н/о +9.9 +3.0 62 +8 +8 1019.0 976.5
21 19.04 ЮЗ 3 н/о н/о +8.8 +2.8 66 +7 +7 1020.4 977.8
22 19.04 ЮЗ 2 н/о н/о +7.5 +2.8 72 +6 +6 1020.8 978.2
00 20.04 Ю 4 н/о н/о +10.8 +2.1 55 +9 +9 1022.6 979.9
01 20.04 ЮЗ 5 н/о н/о +12.5 0.0 42 +11 +11 1023.0 980.3 +7.3
03 20.04 ЮЗ 5 н/о н/о +15.2 -3.2 28 +14 +14 1022.2 979.6
04 20.04 ЮЗ 5 н/о н/о +16.0 -4.5 24 +15 +15 1021.3 978.7
06 20.04 Ю 6 н/о н/о +16.8 -5.6 21 +16 +16 1020.2 977.6
07 20.04 ЮЗ 4 н/о н/о +17.3 -4.6 22 +17 +17 1020.2 977.6
09 20.04 Ю 5 н/о н/о +16.2 -4.9 23 +16 +16 1021.0 978.4
10 20.04 Ю 4 н/о н/о +14.7 -4.6 26 +14 +14 1021.9 979.3
12 20.04 ЮВ 4 н/о н/о +13.3 -4.8 28 +12 +12 1023.3 980.6
13 20.04 Ю 4 н/о н/о +12.7 -4.4 30 +12 +12 1023.7 981.0 +18.0
15 20.04 ЮВ 2 н/о н/о +10.5 -3.2 38 +10 +10 1023.8 981.1
16 20.04 ЮВ 2 н/о н/о +9.2 -3.3 41 +8 +8 1023.8 981.1
18 20.04 штиль 0 н/о н/о +6.6 -1.5 56 +6 +6 1024.0 981.3
19 20.04 штиль 0 н/о н/о +5.9 -1.3 60 +5 +5 1023.9 981.2
21 20.04 ЮВ 3 н/о н/о +6.6 -2.0 54 +4 +4 1024.5 981.8
22 20.04 В 4 н/о н/о +6.9 -2.3 52 +4 +4 1025.3 982.5
00 21.04 В 6 н/о н/о +10.8 +0.8 50 +8 +8 1026.4 983.6
01 21.04 В 7 н/о н/о +13.3 +1.3 44 +11 +11 1026.5 983.7 +5.8
03 21.04 ЮВ 5 н/о н/о +16.2 +1.1 36 +15 +15 1025.9 983.1
04 21.04 В 5 н/о н/о +17.0 +0.2 32 +16 +16 1025.0 982.2
06 21.04 В 5 н/о н/о +19.2 +0.3 28 +19 +19 1022.8 980.1
07 21.04 ЮВ 6 н/о н/о +19.0 -0.4 27 +19 +19 1022.8 980.1
09 21.04 ЮВ 4 н/о н/о +19.0 +0.6 29 +19 +19 1022.4 979.8
10 21.04 ЮВ 3 н/о н/о +17.8 +0.9 32 +18 +18 1023.1 980.4
12 21.04 ЮВ 4 н/о н/о +15.5 +1.3 38 +15 +15 1024.0 981.3
13 21.04 В 4 н/о н/о +15.0 +1.2 39 +14 +14 1024.0 981.3 +20.5
15 21.04 В 5 н/о н/о +14.6 +1.2 40 +13 +13 1023.5 980.8
16 21.04 В 4 н/о н/о +13.8 +1.5 43 +13 +13 1023.5 980.8
18 21.04 В 3 н/о н/о +12.0 +1.6 49 +11 +11 1023.3 980.6
19 21.04 В 3 н/о н/о +11.6 +2.1 52 +10 +10 1023.2 980.5
21 21.04 В 3 н/о н/о +9.6 +2.2 60 +8 +8 1023.6 980.9
22 21.04 ЮВ 3 н/о н/о +8.7 +2.1 63 +7 +7 1023.7 981.0
00 22.04 В 6 н/о н/о +13.3 +3.7 52 +11 +11 1024.6 981.9
01 22.04 В 7 н/о н/о +15.8 +3.3 43 +14 +14 1024.7 982.0 +8.7
03 22.04 СВ 5 н/о н/о +18.7 +2.1 33 +19 +19 1023.4 980.7
04 22.04 СВ 3 н/о н/о +19.8 +1.3 29 +20 +20 1022.4 979.8
06 22.04 В 4 н/о н/о +22.4 +0.3 23 +22 +22 комфорт 1020.7 978.1
07 22.04 В 5 н/о н/о +22.7 -0.1 22 +22 +22 комфорт 1020.5 977.9
09 22.04 В 6 н/о н/о +21.9 +0.4 24 +21 +21 комфорт 1020.4 977.8
10 22.04 В 4 н/о н/о +20.4 +0.8 27 +21 +21 комфорт 1021.0 978.4
12 22.04 В 2 н/о н/о +17.4 +1.4 34 +18 +18 1022.2 979.6
13 22.04 В 3 н/о н/о +16.1 +2.2 39 +16 +16 1022.6 979.9 +23.3
15 22.04 ЮВ 2 н/о н/о +13.9 +2.2 45 +14 +14 1023.1 980.4
16 22.04 В 3 н/о н/о +13.4 +2.6 48 +13 +13 1022.9 980.2
18 22.04 ЮВ 4 н/о н/о +11.9 +2.6 53 +10 +10 1022.2 979.6
19 22.04 В 3 н/о н/о +11.0 +2.6 56 +10 +10 1022.2 979.6
21 22.04 ЮВ 3 н/о н/о +10.1 +2.7 60 +9 +9 1022.8 980.1
22 22.04 ЮВ 3 н/о н/о +10.0 +2.4 59 +8 +8 1022.6 979.9
00 23.04 В 3 н/о н/о +14.2 +3.1 47 +14 +14 1023.6 980.9
01 23.04 СВ 3 н/о н/о +17.4 +3.0 38 +17 +17 1024.0 981.3 +9.9
03 23.04 СВ 4 н/о н/о +22.0 +2.2 27 +22 +22 комфорт 1022.9 980.2
04 23.04 ЮВ 4 н/о н/о +23.2 +1.5 24 +22 +22 комфорт 1022.1 979.5
06 23.04 В 5 н/о н/о +24.4 +1.3 22 +23 +23 комфорт 1020.9 978.3
07 23.04 ЮВ 5 н/о н/о +24.9 +0.4 20 +23 +23 комфорт 1020.8 978.2
09 23.04 ЮВ 5 н/о н/о +24.0 +1.0 22 +23 +23 комфорт 1021.0 978.4
10 23.04 ЮВ 4 н/о н/о +22.5 +0.9 24 +22 +22 комфорт 1021.7 979.1
12 23.04 ЮВ 3 н/о н/о +18.9 +1.0 30 +19 +19 1022.9 980.2
13 23.04 В 3 н/о н/о +17.6 +1.2 33 +18 +18 1023.4 980.7 +25.6
15 23.04 ЮВ 4 н/о н/о +15.6 +1.7 39 +15 +15 1023.4 980.7
16 23.04 ЮВ 3 н/о н/о +14.7 +1.9 42 +14 +14 1023.5 980.8
18 23.04 ЮВ 3 н/о н/о +13.6 +2.8 48 +13 +13 1023.4 980.7
19 23.04 ЮВ 4 н/о н/о +13.2 +3.0 50 +12 +12 1023.6 980.9
21 23.04 ЮВ 5 н/о н/о +12.0 +3.3 55 +10 +10 1024.2 981.5
22 23.04 ЮВ 4 н/о н/о +11.3 +3.3 58 +9 +9 1024.7 982.0
00 24.04 В 4 н/о н/о +15.4 +4.2 47 +15 +15 1025.9 983.1
01 24.04 В 6 н/о н/о +18.7 +4.1 38 +19 +19 1026.0 983.2 +11.1
03 24.04 В 6 н/о н/о +22.7 +3.3 28 +23 +23 комфорт 1025.0 982.2
04 24.04 В 5 н/о н/о +24.0 +2.8 25 +23 +23 комфорт 1024.1 981.4
06 24.04 ЮВ 5 н/о н/о +26.4 +0.2 18 +25 +25 комфорт 1022.3 979.7
07 24.04 В 6 н/о н/о +26.4 +0.2 18 +25 +25 комфорт 1022.0 979.4

 

Местоположение метеостанции Леонора аэропорт (Западная Австралия, Австралия): широта -28.88 долгота 121.32 высота над уровнем моря 370 м.

В архиве по умолчанию представлена погода в Леонора аэропорту за последнюю неделю. Архивные данные за месяц целиком и за предыдущие месяцы, начиная с января 2011 года, Вы можете получить, выбрав интересующий диапазон дат из раскрывающегося списка и нажав кнопку "Ввод!".


*Определитесь, кто Вы:
робот инопланетянин человек

Внимание! Время в таблицах - всемирное. Для получения местного времени необходимо прибавить поправку, которая равна 8 ч.

Смотрите также архив погоды в соседних городах и на ближайших метеорологических станциях:

Погода в Лавертоне (Западная Австралия, Австралия) (110 км)
Погода в Леинстере (Западная Австралия, Австралия) (130 км)
Погода в Калгурли-Боулдере (Западная Австралия, Австралия) (212 км)
Погода в Саутерн Кросс (Западная Австралия, Австралия) (323 км)
Погода в Маунт Магнет аэропорту (Западная Австралия, Австралия) (352 км)
Погода в Микатарре (Западная Австралия, Австралия) (372 км)
Погода в Норсмане (Западная Австралия, Австралия) (374 км)
Погода в Салмон Гамс (Западная Австралия, Австралия) (457 км)
Погода в Дауоллину (Западная Австралия, Австралия) (476 км)
Погода в Кандердине (Западная Австралия, Австралия) (498 км)

Пояснения к столбцам:

Ветер - указаны скорость ветра в м/с - средняя за 10 мин, порывы в срок и между сроками (в фигурных скобках) и направление, откуда дует ветер: С - северный, СВ - северо-восточный, В - восточный, ЮВ - юго-восточный, Ю - южный, ЮЗ - юго-западный, З - западный, СЗ - северо-западный.
Видимость - горизонтальная дальность видимости в метрах или километрах. При видимости от 1 до 10 км при отсутствии осадков обычно наблюдается дымка, при ухудшении видимости до 1 км и менее - туман. В сухую погоду видимость может ухудшаться дымом, пылью или мглою.
Явления - указаны атмосферные явления, наблюдавшиеся в срок или в последний час перед сроком; фигурными скобками обозначены явления, наблюдавшиеся между сроками (за 1-3 часа до срока); квадратными скобками обозначены град или гололедные отложения с указанием их диаметра в мм.
Облачность - указаны через наклонную черту общая и нижняя облачность в баллах и высота нижней границы облаков в метрах; квадратными скобками обозначены формы облаков: Ci - перистые, Cs - перисто-слоистые, Cc - перисто-кучевые, Ac - высококучевые, As - высокослоистые, Sc - слоисто-кучевые, Ns - слоисто-дождевые, Cu - кучевые, Cb - кучево-дождевые. Подробнее классификацию облаков см. в Атласе облаков (PDF).
T - Температура воздуха - температура, измеренная на высоте 2 м над землей.
Td - Температура точки росы - температура, при понижении до которой содержащийся в воздухе водяной пар достигнет насыщения.
f - Относительная влажность воздуха - влажноcть воздуха, измеренная на высоте 2 м над землей.
Te - Эффективная температура - температура, которую ощущает одетый по сезону человек в тени. Характеристика душности погоды. При расчете учитывается влияние влажности воздуха и скорости ветра на теплоощущения человека.
Tes - Эффективная температура на солнце - температура, которую ощущает человек, с поправкой на солнечный нагрев. Характеристика знойности погоды. Зависит от высоты солнца над горизонтом, облачности и скорости ветра. Ночью, в пасмурную погоду, а также при ветре 12 м/с и более поправка равна нулю.
P - Атмосферное давление - приведенное к уровню моря атмосферное давление.
Po - Атмосферное давление - измеренное на уровне метеостанции атмосферное давление.
Tmin - Минимальная температура - минимум температуры воздуха на высоте 2 м над землей.
Tmax - Максимальная температура - максимум температуры воздуха на высоте 2 м над землей.
R - Количество осадков - Количество выпавших осадков за период времени, мм. При наведении курсора мыши на число - период времени, за который выпало указанное количество осадков.
R24 - Количество осадков - Количество выпавших осадков за 24 часа, мм.
S - Снежный покров - Высота снежного покрова, см. При наведении курсора мыши на число - состояние снежного покрова и степень покрытия местности в баллах.